Location: ActonStarParty
(42.4766°N, 71.4538°W)
Time: 21:22:52
(UTC-04:00)

Amateur Radio Satellites - All Passes

Search period start: 23 April 2017 20:52
Search period end: 24 April 2017 20:52
Location: ActonStarParty, 42.4766°N, 71.4538°W

Satellite Date Start Highest point End Downlink Frequencies (MHz)
Time Altitude Azimuth
AO-73 23 Apr 21:00:39 21:04:48 58° 260° (W) 21:08:55 145.935
AAUSAT CUBESAT 2 23 Apr 21:11:39 21:14:45 20° 267° (W) 21:17:53 437.432
Oscar 11 23 Apr 21:20:34 21:24:39 42° 262° (W) 21:28:45 .
O/OREOS (USA 219) 23 Apr 21:22:42 21:27:10 52° 252° (WSW) 21:31:34 437.305
UWE-3 23 Apr 21:26:10 21:29:00 17° 267° (W) 21:31:50 435.000/436.395/437.385
PRISM 23 Apr 21:31:40 21:34:08 15° 92° (E) 21:36:35 437.425
NO-84 23 Apr 21:42:18 21:45:38 40° 325° (NW) 21:48:43 435.350 FM
BEESAT 3 23 Apr 21:46:23 21:47:09 10° 35° (NE) 21:47:55 437.485
STRAND 1 23 Apr 21:49:04 21:52:13 17° 299° (WNW) 21:55:22 437.568
LO-87 23 Apr 22:05:53 22:08:29 19° 68° (ENE) 22:11:05 145.935 - 145.965
ESTCUBE 1 23 Apr 22:13:41 22:16:33 17° 63° (ENE) 22:19:26 437.505/2401.250
TIGRISAT 23 Apr 22:16:05 22:19:44 27° 96° (E) 22:23:24 435.000
OBJECT BX 23 Apr 22:23:29 22:26:43 31° 263° (W) 22:30:00 145.990 - 145.960
AO-85 23 Apr 22:25:09 22:29:08 85° 236° (SW) 22:33:16 145.980
DELFI C3 23 Apr 22:26:12 22:29:30 25° 265° (W) 22:32:51 145.870
UNISAT 6 23 Apr 22:35:54 22:40:04 49° 100° (E) 22:44:14 437.425
VELOX 1 23 Apr 22:44:19 22:44:49 10° 59° (ENE) 22:45:19 145.980
PRISM 23 Apr 23:05:40 23:09:39 45° 288° (WNW) 23:13:36 437.425
BEESAT 2 23 Apr 23:13:03 23:16:24 24° 46° (NE) 23:19:44 435.950
FO-29 23 Apr 23:13:51 23:19:02 79° 102° (ESE) 23:24:28 435.910
BEESAT 3 23 Apr 23:21:31 23:25:32 66° 55° (NE) 23:29:30 437.485
NO-84 23 Apr 23:22:43 23:23:49 11° 344° (NNW) 23:24:53 435.350 FM
POLYITAN 1 23 Apr 23:30:14 23:32:25 14° 91° (E) 23:34:36 437.675
QB50P2 23 Apr 23:36:06 23:38:57 18° 93° (E) 23:41:48 145.880/145.840
LO-87 23 Apr 23:38:33 23:41:45 28° 264° (W) 23:44:56 145.935 - 145.965
DX 1 23 Apr 23:44:33 23:47:26 17° 64° (ENE) 23:50:19 434.975-435.025
ESTCUBE 1 23 Apr 23:48:33 23:52:56 52° 260° (W) 23:57:22 437.505/2401.250
TIGRISAT 23 Apr 23:52:48 23:56:21 26° 292° (WNW) 23:59:56 435.000
NANOSAT C BR1 24 Apr 00:00:52 00:04:28 27° 96° (E) 00:08:02 145.865
AIST 2D 24 Apr 00:01:33 00:05:03 63° 101° (E) 00:08:32 435.315
SPROUT 24 Apr 00:08:00 00:12:15 68° 74° (ENE) 00:16:30 437.525
UNISAT 6 24 Apr 00:13:49 00:16:24 16° 296° (WNW) 00:18:59 437.425
BUGSAT 1 24 Apr 00:15:29 00:15:35 10° 90° (E) 00:15:42 437.445
VELOX 1 24 Apr 00:16:04 00:20:32 90° 187° (S) 00:25:02 145.980
EO-79 24 Apr 00:26:06 00:30:15 58° 100° (E) 00:34:23 145.935-145.965
DUCHIFAT 1 24 Apr 00:32:08 00:36:14 55° 100° (E) 00:40:19 145.980
50 SAT 24 Apr 00:33:40 00:37:08 87° 77° (ENE) 00:40:40 437.505
BEESAT 2 24 Apr 00:50:30 00:54:15 36° 244° (WSW) 00:57:58 435.950
UKube-1 24 Apr 00:52:42 00:56:58 61° 73° (ENE) 01:01:15 .
FO-29 24 Apr 01:01:02 01:03:32 14° 301° (WNW) 01:06:05 435.910
BEESAT 3 24 Apr 01:01:11 01:02:34 12° 252° (WSW) 01:03:56 437.485
POLYITAN 1 24 Apr 01:04:26 01:08:30 51° 287° (WNW) 01:12:34 437.675
QB50P2 24 Apr 01:10:58 01:14:54 40° 289° (WNW) 01:18:49 145.880/145.840
DX 1 24 Apr 01:19:01 01:23:14 48° 260° (W) 01:27:30 434.975-435.025
NANOSAT C BR1 24 Apr 01:36:37 01:40:05 26° 292° (WNW) 01:43:31 145.865
BUGSAT 1 24 Apr 01:47:23 01:51:22 63° 285° (WNW) 01:55:19 437.445
SPROUT 24 Apr 01:47:31 01:48:35 11° 271° (W) 01:49:41 437.525
Gurwin Techsat 1B 24 Apr 01:47:49 01:52:02 23° 94° (E) 01:56:12 435.225
EO-79 24 Apr 02:03:29 02:05:32 13° 297° (WNW) 02:07:34 145.935-145.965
BEESAT 24 Apr 02:07:12 02:11:25 32° 68° (ENE) 02:15:39 436.000
DUCHIFAT 1 24 Apr 02:09:19 02:11:27 14° 297° (WNW) 02:13:35 145.980
Oscar 19 24 Apr 02:11:33 02:16:45 65° 102° (ESE) 02:21:54 437.125/150
MOZHAYETS 4 24 Apr 02:29:39 02:33:20 25° 67° (ENE) 02:37:01
UKube-1 24 Apr 02:31:35 02:33:22 12° 269° (W) 02:35:11 .
PCSat 24 Apr 02:36:42 02:41:40 38° 111° (ESE) 02:46:40 145.827
NO-84 24 Apr 02:38:44 02:41:04 21° 28° (NNE) 02:43:22 435.350 FM
ITUPSAT 1 24 Apr 02:44:59 02:49:44 75° 74° (ENE) 02:54:30 437.325
YUBILEINY 24 Apr 02:52:26 02:54:55 11° 72° (ENE) 02:57:25 435.215
KKS-1 24 Apr 03:07:16 03:09:02 12° 60° (ENE) 03:10:47 437.445
CUBESAT XI-V 24 Apr 03:13:45 03:15:57 13° 61° (ENE) 03:18:08 437.345
AO-7 24 Apr 03:16:26 03:23:08 26° 94° (E) 03:29:48 .
Gurwin Techsat 1B 24 Apr 03:27:07 03:32:11 46° 290° (WNW) 03:37:13 435.225
ITAMSAT 1 24 Apr 03:30:42 03:35:18 31° 96° (E) 03:39:52 435.822/435.867
BEESAT 24 Apr 03:45:08 03:49:11 27° 264° (W) 03:53:15 436.000
STARS 24 Apr 03:47:22 03:49:38 14° 62° (ENE) 03:51:53 437.465
Oscar 19 24 Apr 03:52:09 03:55:32 18° 299° (WNW) 03:58:54 437.125/150
MOZHAYETS 4 24 Apr 04:06:12 04:10:19 34° 263° (W) 04:14:28
NO-84 24 Apr 04:16:00 04:18:39 34° 226° (SW) 04:21:15 435.350 FM
PCSat 24 Apr 04:20:11 04:25:05 34° 310° (NW) 04:30:02 145.827
ITUPSAT 1 24 Apr 04:26:26 04:28:05 12° 271° (W) 04:29:45 437.325
KKS-1 24 Apr 04:40:29 04:44:57 76° 257° (WSW) 04:49:27 437.445
YUBILEINY 24 Apr 04:41:19 04:49:52 66° 92° (E) 04:58:27 435.215
CUBESAT XI-V 24 Apr 04:48:04 04:52:41 73° 258° (WSW) 04:57:22 437.345
AO-7 24 Apr 05:08:16 05:16:31 70° 293° (WNW) 05:24:46 .
ITAMSAT 1 24 Apr 05:10:08 05:14:44 33° 293° (WNW) 05:19:18 435.822/435.867
STARS 24 Apr 05:21:04 05:25:27 63° 259° (WSW) 05:29:51 437.465
STRAND 1 24 Apr 05:49:02 05:51:33 14° 59° (ENE) 05:54:04 437.568
XW-2B 24 Apr 05:49:28 05:50:28 11° 90° (E) 05:51:28 145.730 - 145.750
M-CUBED/EXP-1 PRIME 24 Apr 05:52:01 05:55:20 20° 59° (ENE) 05:58:42 437.505
LilacSat-2 24 Apr 05:55:50 05:57:58 14° 92° (E) 06:00:05 437.200
CUTE-I 24 Apr 05:56:39 05:59:53 16° 91° (E) 06:03:06 437.470
XW-2C 24 Apr 06:00:05 06:02:22 15° 92° (E) 06:04:38 145.795 - 145.815
KAITUO 1B 24 Apr 06:05:32 06:07:31 14° 92° (E) 06:09:30 145.475/437.950
DOVE 4 24 Apr 06:08:23 06:12:39 34° 95° (E) 06:16:41 437.250
RS-15 24 Apr 06:20:24 06:29:20 25° 100° (E) 06:38:26 29.354- 29.394
XW-2F 24 Apr 06:27:01 06:30:23 30° 97° (E) 06:33:45 145.980 - 146.000
YUBILEINY 24 Apr 06:40:09 06:47:21 28° 294° (WNW) 06:54:36 435.215
NUDT-PHONESAT 24 Apr 06:47:37 06:51:11 43° 99° (E) 06:54:45 437.300
SO-50 24 Apr 06:59:44 07:04:08 45° 118° (ESE) 07:08:30 436.795
AO-7 24 Apr 07:02:55 07:07:51 18° 313° (NW) 07:12:48 .
CUTE 1.7 + AOD 2 24 Apr 07:10:35 07:12:53 14° 90° (E) 07:15:11 437.475
XW-2D 24 Apr 07:14:22 07:18:08 63° 285° (WNW) 07:21:54 145.860 - 145.880
XW-2B 24 Apr 07:21:15 07:24:58 53° 286° (WNW) 07:28:41 145.730 - 145.750
M-CUBED/EXP-1 PRIME 24 Apr 07:24:53 07:29:20 52° 255° (WSW) 07:33:56 437.505
STRAND 1 24 Apr 07:24:55 07:30:02 82° 257° (WSW) 07:35:10 437.568
HO-68 24 Apr 07:27:28 07:33:40 31° 95° (E) 07:39:51 435.675
LilacSat-2 24 Apr 07:28:49 07:32:26 41° 287° (WNW) 07:36:02 437.200
XW-2C 24 Apr 07:33:10 07:36:42 37° 288° (WNW) 07:40:14 145.795 - 145.815
CUTE-I 24 Apr 07:35:07 07:40:24 66° 287° (WNW) 07:45:38 437.470
SEEDS 24 Apr 07:35:53 07:38:45 17° 92° (E) 07:41:36 437.485
KAITUO 1B 24 Apr 07:38:10 07:41:43 40° 288° (WNW) 07:45:16 145.475/437.950
XW-2A 24 Apr 07:44:38 07:47:38 30° 97° (E) 07:50:38 145.665 - 145.685
CUBEBUG 2 24 Apr 07:44:57 07:47:18 15° 91° (E) 07:49:40 437.445
DOVE 4 24 Apr 07:46:20 07:50:10 25° 294° (WNW) 07:53:49 437.250
XW-2F 24 Apr 08:01:35 08:04:20 19° 292° (WNW) 08:07:05 145.980 - 146.000
PRISM 24 Apr 08:22:15 08:24:13 13° 62° (ENE) 08:26:10 437.425
NUDT-PHONESAT 24 Apr 08:22:51 08:24:43 14° 295° (WNW) 08:26:36 437.300
RS-15 24 Apr 08:28:03 08:40:09 90° 145° (SE) 08:52:38 29.354- 29.394
ZACube-1 24 Apr 08:39:33 08:42:45 21° 94° (E) 08:45:59 437.345
SO-50 24 Apr 08:40:57 08:44:47 25° 316° (NW) 08:48:35 436.795
CUTE 1.7 + AOD 2 24 Apr 08:44:51 08:49:01 52° 287° (WNW) 08:53:11 437.475
AO-73 24 Apr 08:48:03 08:51:26 23° 95° (E) 08:54:52 145.935
AAUSAT CUBESAT 2 24 Apr 08:51:41 08:55:50 58° 100° (E) 08:59:57 437.432
Tancredo 1 24 Apr 08:55:28 08:58:09 27° 137° (SE) 09:00:50 437.200
ISS 24 Apr 08:55:32 08:58:07 22° 135° (SE) 09:00:43 437.550
Oscar 11 24 Apr 09:06:58 09:10:52 32° 97° (E) 09:14:45 .
SEEDS 24 Apr 09:10:36 09:14:37 41° 288° (WNW) 09:18:37 437.485
UWE-3 24 Apr 09:12:57 09:17:08 87° 104° (ESE) 09:21:22 435.000/436.395/437.385
HO-68 24 Apr 09:14:43 09:21:40 54° 293° (WNW) 09:28:36 435.675
TIGRISAT 24 Apr 09:15:21 09:19:03 27° 68° (ENE) 09:22:42 435.000
XW-2A 24 Apr 09:18:12 09:20:09 15° 293° (WNW) 09:22:05 145.665 - 145.685
CUBEBUG 2 24 Apr 09:20:12 09:24:10 46° 287° (WNW) 09:28:11 437.445
FO-29 24 Apr 09:26:33 09:32:21 38° 68° (ENE) 09:37:35 435.910
UNISAT 6 24 Apr 09:35:04 09:39:18 47° 72° (ENE) 09:43:28 437.425
OBJECT BX 24 Apr 09:51:49 09:54:32 20° 94° (E) 09:57:15 145.990 - 145.960
PRISM 24 Apr 09:54:53 09:58:58 60° 258° (WSW) 10:03:07 437.425
O/OREOS (USA 219) 24 Apr 09:57:56 10:00:49 17° 99° (E) 10:03:42 437.305
DELFI C3 24 Apr 10:01:52 10:05:36 36° 97° (E) 10:09:18 145.870
ZACube-1 24 Apr 10:15:20 10:19:06 33° 290° (WNW) 10:22:55 437.345
AO-73 24 Apr 10:24:01 10:27:40 30° 290° (WNW) 10:31:23 145.935
POLYITAN 1 24 Apr 10:24:12 10:25:58 12° 62° (ENE) 10:27:44 437.675
AAUSAT CUBESAT 2 24 Apr 10:28:43 10:30:48 14° 297° (WNW) 10:32:53 437.432
QB50P2 24 Apr 10:29:49 10:32:18 16° 64° (ENE) 10:34:49 145.880/145.840
Tancredo 1 24 Apr 10:31:04 10:33:59 37° 334° (NNW) 10:36:55 437.200
ISS 24 Apr 10:31:15 10:34:25 47° 332° (NNW) 10:37:35 437.550
AIST 2D 24 Apr 10:36:53 10:39:42 24° 70° (ENE) 10:42:33 435.315
Oscar 11 24 Apr 10:43:22 10:46:50 24° 293° (WNW) 10:50:19 .
RS-15 24 Apr 10:43:29 10:54:28 36° 329° (NNW) 11:05:38 29.354- 29.394
TIGRISAT 24 Apr 10:51:52 10:55:40 28° 264° (W) 10:59:25 435.000
NANOSAT C BR1 24 Apr 10:53:40 10:56:58 23° 67° (ENE) 11:00:17 145.865
LO-87 24 Apr 11:05:05 11:07:45 20° 94° (E) 11:10:24 145.935 - 145.965
HO-68 24 Apr 11:05:58 11:07:48 11° 313° (NW) 11:09:39 435.675
FO-29 24 Apr 11:11:35 11:17:25 34° 262° (W) 11:22:42 435.910
UNISAT 6 24 Apr 11:13:29 11:16:14 16° 268° (W) 11:18:59 437.425
EO-79 24 Apr 11:18:46 11:22:48 46° 72° (ENE) 11:26:51 145.935-145.965
PCSat 24 Apr 11:23:35 11:28:38 37° 51° (NE) 11:33:38 145.827
DUCHIFAT 1 24 Apr 11:24:12 11:28:11 43° 72° (ENE) 11:32:10 145.980
OBJECT BX 24 Apr 11:25:06 11:28:14 27° 290° (WNW) 11:31:19 145.990 - 145.960
O/OREOS (USA 219) 24 Apr 11:35:18 11:39:46 51° 297° (WNW) 11:44:17 437.305
DELFI C3 24 Apr 11:37:20 11:40:07 18° 294° (WNW) 11:42:53 145.870
ESTCUBE 1 24 Apr 11:40:24 11:44:27 31° 96° (E) 11:48:27 437.505/2401.250
Oscar 19 24 Apr 11:52:54 11:55:30 14° 59° (ENE) 11:58:05 437.125/150
SPROUT 24 Apr 11:55:41 11:56:36 11° 89° (E) 11:57:30 437.525
POLYITAN 1 24 Apr 11:57:01 12:01:13 65° 259° (WSW) 12:05:24 437.675
QB50P2 24 Apr 12:03:35 12:07:41 50° 260° (W) 12:11:49 145.880/145.840
VELOX 1 24 Apr 12:06:38 12:09:25 16° 92° (E) 12:12:09 145.980
Tancredo 1 24 Apr 12:08:32 12:10:33 16° 353° (N) 12:12:35 437.200
ISS 24 Apr 12:09:09 12:11:28 18° 351° (N) 12:13:47 437.550
AIST 2D 24 Apr 12:10:19 12:12:53 19° 266° (W) 12:15:29 435.315
NANOSAT C BR1 24 Apr 12:28:46 12:32:31 31° 263° (W) 12:36:18 145.865
BUGSAT 1 24 Apr 12:37:00 12:41:10 88° 253° (WSW) 12:45:18 437.445
LO-87 24 Apr 12:38:12 12:41:10 25° 290° (WNW) 12:44:07 145.935 - 145.965
AO-85 24 Apr 12:40:41 12:44:12 25° 115° (ESE) 12:47:34 145.980
EO-79 24 Apr 12:56:17 12:58:48 15° 268° (W) 13:01:20 145.935-145.965
DUCHIFAT 1 24 Apr 13:01:26 13:04:04 16° 268° (W) 13:06:42 145.980
RS-15 24 Apr 13:02:21 13:12:02 25° 4° (N) 13:21:36 29.354- 29.394
DX 1 24 Apr 13:06:42 13:10:24 26° 96° (E) 13:14:04 434.975-435.025
PCSat 24 Apr 13:07:05 13:11:57 34° 250° (WSW) 13:16:47 145.827
Gurwin Techsat 1B 24 Apr 13:09:16 13:14:10 40° 68° (ENE) 13:19:07 435.225
ESTCUBE 1 24 Apr 13:17:18 13:21:08 27° 293° (WNW) 13:24:56 437.505/2401.250
SPROUT 24 Apr 13:28:44 13:32:57 67° 286° (WNW) 13:37:09 437.525
Oscar 19 24 Apr 13:28:57 13:34:06 83° 257° (WSW) 13:39:19 437.125/150
50 SAT 24 Apr 13:29:21 13:32:52 84° 103° (ESE) 13:36:21 437.505
VELOX 1 24 Apr 13:41:50 13:46:07 48° 288° (WNW) 13:50:21 145.980
Tancredo 1 24 Apr 13:45:01 13:47:20 19° 14° (NNE) 13:49:40 437.200
ISS 24 Apr 13:46:25 13:48:50 19° 12° (NNE) 13:51:14 437.550
UKube-1 24 Apr 14:14:48 14:19:08 79° 285° (WNW) 14:23:26 .
AO-7 24 Apr 14:16:00 14:23:31 40° 60° (ENE) 14:31:02 .
AO-85 24 Apr 14:20:36 14:24:28 33° 310° (NW) 14:28:10 145.980
BEESAT 2 24 Apr 14:42:10 14:45:37 30° 115° (ESE) 14:49:10 435.950
DX 1 24 Apr 14:42:47 14:46:32 29° 292° (WNW) 14:50:16 434.975-435.025
ITUPSAT 1 24 Apr 14:45:46 14:49:01 18° 92° (E) 14:52:16 437.325
BEESAT 3 24 Apr 14:48:44 14:52:40 85° 301° (WNW) 14:56:41 437.485
ITAMSAT 1 24 Apr 14:49:05 14:54:06 52° 71° (ENE) 14:59:09 435.822/435.867
Gurwin Techsat 1B 24 Apr 14:49:45 14:54:12 27° 265° (W) 14:58:42 435.225
YUBILEINY 24 Apr 14:50:53 14:58:38 34° 69° (ENE) 15:06:22 435.215
RS-15 24 Apr 15:17:29 15:29:04 43° 37° (NE) 15:40:12 29.354- 29.394
Tancredo 1 24 Apr 15:20:35 15:23:41 71° 32° (NNE) 15:26:47 437.200
ISS 24 Apr 15:22:34 15:25:49 59° 31° (NNE) 15:29:01 437.550
SO-50 24 Apr 15:30:15 15:34:38 48° 51° (NE) 15:38:59 436.795
BEESAT 24 Apr 15:43:29 15:48:16 70° 103° (ESE) 15:53:00 436.000
MOZHAYETS 4 24 Apr 15:59:49 16:04:19 51° 100° (E) 16:08:48
AO-7 24 Apr 16:08:09 16:16:06 49° 259° (WSW) 16:24:06 .
BEESAT 2 24 Apr 16:19:57 16:23:22 27° 313° (NW) 16:26:52 435.950
ITUPSAT 1 24 Apr 16:22:30 16:27:07 50° 289° (WNW) 16:31:43 437.325
BEESAT 3 24 Apr 16:29:13 16:30:54 12° 323° (NW) 16:32:36 437.485
ITAMSAT 1 24 Apr 16:30:08 16:33:52 20° 267° (W) 16:37:37 435.822/435.867
KKS-1 24 Apr 16:31:35 16:34:47 19° 93° (E) 16:37:56 437.445
CUBESAT XI-V 24 Apr 16:44:16 16:48:16 27° 95° (E) 16:52:14 437.345
YUBILEINY 24 Apr 16:47:21 16:55:49 56° 270° (W) 17:04:17 435.215
Tancredo 1 24 Apr 16:57:43 16:59:14 13° 229° (SW) 17:00:44 437.200
ISS 24 Apr 16:59:47 17:01:59 17° 227° (SW) 17:04:11 437.550
XW-2F 24 Apr 17:09:22 17:11:45 17° 67° (ENE) 17:14:09 145.980 - 146.000
STARS 24 Apr 17:10:20 17:13:41 21° 94° (E) 17:17:01 437.465
SO-50 24 Apr 17:11:30 17:14:45 20° 249° (WSW) 17:18:01 436.795
DOVE 4 24 Apr 17:13:09 17:18:04 41° 70° (ENE) 17:22:58 437.250
CUTE-I 24 Apr 17:18:33 17:23:07 30° 66° (ENE) 17:27:41 437.470
BEESAT 24 Apr 17:22:55 17:25:27 14° 299° (WNW) 17:27:59 436.000
NUDT-PHONESAT 24 Apr 17:27:59 17:30:51 22° 68° (ENE) 17:33:42 437.300
RS-15 24 Apr 17:30:24 17:42:32 72° 243° (WSW) 17:54:05 29.354- 29.394
MOZHAYETS 4 24 Apr 17:38:02 17:41:05 18° 296° (WNW) 17:44:08
XW-2D 24 Apr 17:55:48 17:59:30 64° 75° (ENE) 18:03:13 145.860 - 145.880
HO-68 24 Apr 17:57:35 18:03:11 26° 58° (ENE) 18:08:49 435.675
XW-2B 24 Apr 18:02:38 18:06:22 76° 77° (ENE) 18:10:08 145.730 - 145.750
CUTE 1.7 + AOD 2 24 Apr 18:05:03 18:06:29 12° 62° (ENE) 18:07:55 437.475
KKS-1 24 Apr 18:07:19 18:11:30 41° 290° (WNW) 18:15:38 437.445
LilacSat-2 24 Apr 18:10:42 18:14:27 80° 259° (W) 18:18:14 437.200
XW-2C 24 Apr 18:14:26 18:18:10 75° 257° (WSW) 18:21:56 145.795 - 145.815
XW-2A 24 Apr 18:18:04 18:19:31 12° 66° (ENE) 18:21:00 145.665 - 145.685
KAITUO 1B 24 Apr 18:18:13 18:21:54 86° 257° (WSW) 18:25:37 145.475/437.950
CUBESAT XI-V 24 Apr 18:21:25 18:25:38 33° 291° (WNW) 18:29:49 437.345
SEEDS 24 Apr 18:29:01 18:31:08 14° 63° (ENE) 18:33:16 437.485
XW-2F 24 Apr 18:42:14 18:45:38 34° 263° (W) 18:49:04 145.980 - 146.000
CUBEBUG 2 24 Apr 18:43:59 18:46:27 15° 64° (ENE) 18:48:53 437.445
STARS 24 Apr 18:46:07 18:50:07 35° 290° (WNW) 18:54:05 437.465
DOVE 4 24 Apr 18:51:22 18:55:48 27° 266° (W) 19:00:15 437.250
CUTE-I 24 Apr 18:58:05 19:03:01 38° 262° (W) 19:07:59 437.470
NUDT-PHONESAT 24 Apr 19:01:38 19:04:39 24° 265° (W) 19:07:42 437.300
NO-84 24 Apr 19:34:05 19:36:41 18° 129° (SE) 19:39:10 435.350 FM
STRAND 1 24 Apr 19:35:02 19:39:36 32° 96° (E) 19:44:07 437.568
ZACube-1 24 Apr 19:36:26 19:39:19 18° 66° (ENE) 19:42:11 437.345
CUTE 1.7 + AOD 2 24 Apr 19:37:32 19:41:43 70° 259° (WSW) 19:45:58 437.475
AAUSAT CUBESAT 2 24 Apr 19:42:08 19:45:59 39° 72° (ENE) 19:49:53 437.432
HO-68 24 Apr 19:43:13 19:50:19 68° 256° (WSW) 19:57:28 435.675
AO-73 24 Apr 19:44:32 19:47:36 20° 67° (ENE) 19:50:38 145.935
RS-15 24 Apr 19:46:07 19:52:34 16° 265° (W) 19:58:54 29.354- 29.394
XW-2A 24 Apr 19:48:48 19:51:57 37° 261° (W) 19:55:06 145.665 - 145.685
SEEDS 24 Apr 20:02:15 20:06:21 56° 260° (W) 20:10:30 437.485
Oscar 11 24 Apr 20:02:24 20:06:00 27° 68° (ENE) 20:09:37 .
O/OREOS (USA 219) 24 Apr 20:05:33 20:09:48 36° 60° (ENE) 20:14:00 437.305
UWE-3 24 Apr 20:10:09 20:14:26 74° 76° (ENE) 20:18:39 435.000/436.395/437.385
CUBEBUG 2 24 Apr 20:18:21 20:22:40 54° 260° (W) 20:26:53 437.445
OBJECT BX 24 Apr 20:32:30 20:33:04 10° 63° (ENE) 20:33:40 145.990 - 145.960
M-CUBED/EXP-1 PRIME 24 Apr 20:37:41 20:41:59 74° 290° (WNW) 20:45:55 437.505
